Location: Bucquoy
(50.1391°N, 2.7097°E)
Time: 23:52:14
(UTC+00:00)

Cosmos 1656 - Pass Details

Date: 06 May 2021
Orbit: 797 x 851 km, 71.1° (Epoch: 21 June)

Event Time Altitude Azimuth Distance (km) Brightness Sun altitude
Exits shadow 03:20:48 - 209° (SSW) 2,542 5.6 -8.3°
Reaches altitude 10° 03:21:15 10° 209° (SSW) 2,371 5.5 -8.2°
Maximum altitude 03:26:40 85° 297° (WNW) 816 3.6 -7.5°
Drops below altitude 10° 03:32:12 10° 28° (NNE) 2,414 7.3 -6.8°
Sets 03:34:39 0° 29° (NNE) 3,358 8.2 -6.5°
